Terminal Aerodrome Forecast
Issued by NWS

Home | Current Version | Previous Version | Text Only | Print | Product List | Glossary On
Versions: 1 2 3 4 5 6 7 8 9 10 11 12 13 14 15 16 17 18 19 20 21 22
157
FTUS42 KFFC 042323
TAFPDK
TAF
KPDK 042323Z 0500/0524 29010KT P6SM BKN060
      TEMPO 0501/0503 32015G25KT 6SM SHRA BKN050
     FM050300 32012KT P6SM BKN060
     FM051100 33012G20KT P6SM SCT060
     FM051500 32018G27KT P6SM BKN060=

USA.gov is the U.S. government's official web portal to all federal, state and local government web resources and services.